Flag for Australia Weather past 2 weeks in Traralgon, Victoria, Australia

Now
41 °F

Partly sunny.


Feels Like: 41 °F
Forecast: 33 / 61 °F
Wind: No wind

Location: Latrobe Valley Airport

Current Time: May 25, 2015 at 10:31:07 AM

Latest Report: May 25, 2015 at 9:00 AM


Visibility: N/A

Pressure: 30.47 "Hg

Humidity: 100%

Dew point: 41 °F

Location of TraralgonLocation

Historic Weather in Traralgon — Graph

°F

Traralgon temperature yesterday

Maximum temperature yesterday: 56 °F (at 3:00 PM)
Minimum temperature yesterday: 38 °F (at 11:00 PM)
Average temperature yesterday: 45 °F

Past Weeks' High & Low Weather Summary

 TemperatureHumidityPressure
High67 °F (May 17, 2:00 PM)100% (May 10, 12:00 PM)30.63 "Hg (May 10, 12:00 PM)
Low35 °F (May 18, 6:00 AM)55% (May 20, 3:00 PM)29.54 "Hg (May 10, 11:00 AM)
Average50 °F91%30.21 "Hg
* Reported May 10 9:00 AM — May 25 9:00 AM, Traralgon, Weather by CustomWeather, © 2015

Note: Actual official high and low records may vary slightly from our data, if they occured in-between our weather recording intervals... More about our weather records

Advertising

Traralgon weather history for previous 24 hours

 ConditionsComfort  
Time TempWeatherWind HumidityBarometerVisibility
9:00 AM
Mon, May 25
41 °FPartly sunny.No wind100%30.47 "HgN/A
8:00 AM39 °FChilly.3 mph100%30.47 "HgN/A
6:00 AM36 °FOvercast.No wind100%30.45 "Hg2 mi
5:00 AM35 °FChilly.No wind100%30.44 "HgN/A
3:00 AM36 °FLow clouds.No wind100%30.45 "Hg1 mi
2:00 AM36 °FChilly.No wind100%30.45 "HgN/A
12:00 AM37 °FLow clouds.No wind100%30.45 "Hg4 mi
11:00 PM
Sun, May 24
38 °FChilly.No wind100%30.45 "HgN/A
9:00 PM39 °FOvercast.5 mph100%30.45 "Hg4 mi
8:00 PM42 °FQuite cool.2 mph100%30.45 "HgN/A
6:00 PM47 °FOvercast.No wind95%30.44 "HgN/A
5:00 PM49 °FCool.No wind90%30.42 "HgN/A
3:00 PM56 °FOvercast.No wind68%30.41 "HgN/A
2:00 PM55 °FCool.No wind69%30.42 "HgN/A
12:00 PM49 °FCool.5 mph86%30.45 "HgN/A
11:00 AM48 °FCool.3 mph86%30.48 "HgN/A
Weather by CustomWeather, © 2015

See weather overviewHow to use our weather pages